Regional Weather Roundup
Issued by NWS

Home | Current Version | Previous Version | Graphics & Text | Print | Product List | Glossary On
Versions: 1 2 3 4 5 6 7 8 9 10 11 12 13 14 15 16 17 18 19 20 21 22 23 24 25 26 27 28 29 30 31 32 33 34 35 36 37 38 39 40 41 42 43 44 45 46 47 48 49 50
481
ASUS43 KMKX 212300
RWRWI

WISCONSIN REGIONAL WEATHER ROUNDUP
NATIONAL WEATHER SERVICE MILWAUKEE/SULLIVAN WI
500 PM CST SUN JAN 21 2018

NOTE: "FAIR" INDICATES FEW OR NO CLOUDS BELOW 12,000 FEET WITH NO
SIGNIFICANT WEATHER AND/OR OBSTRUCTIONS TO VISIBILITY.

WIZ001-002-006>008-014>016-023>028-220000-
NORTHWEST WISCONSIN

CITY           SKY/WX    TMP DP  RH WIND       PRES   REMARKS
SUPERIOR ARPT  CLOUDY    30  30  99 NE6       30.04R FOG     WCI  24
ASHLAND        FOG       29  29 100 NE8       30.04S VSB 1/4 WCI  21
HAYWARD        CLOUDY    37  28  70 NE8       29.98R WCI  31
SIREN          CLOUDY    36  28  73 CALM      29.98R
CUMBERLAND     CLOUDY    36  28  75 N6        29.95S WCI  31
RICE LAKE      CLOUDY    38  30  74 N5        29.97R WCI  34
CHETEK         CLOUDY    36  30  80 CALM      29.95R
LADYSMITH      CLOUDY    38  31  73 N6        29.96S WCI  34
EAU CLAIRE     NOT AVBL
MENOMONIE      CLOUDY    39  30  71 N6        29.94R WCI  34
NEW RICHMOND   CLOUDY    37  28  71 N6        29.95S WCI  32
OSCEOLA        CLOUDY    36  29  75 N5        29.98F WCI  32
$$

WIZ003>005-009-010-017-018-220000-
NORTH CENTRAL WISCONSIN

CITY           SKY/WX    TMP DP  RH WIND       PRES   REMARKS
MANITOWISH WTR CLOUDY    36  32  85 NE3       29.96R
ARBOR VITAE    CLOUDY    37  32  85 N3        29.95S
WOODRUFF       CLOUDY    37  32  85 N3        29.95S
RHINELANDER    CLOUDY    37  31  78 NE3       29.96R
EAGLE RIVER    MOCLDY    35  30  82 CALM      29.96R
LAND O LAKES   CLOUDY    36  30  79 N6        29.98R WCI  31
PHILLIPS       CLOUDY    36  31  83 N3        29.95S
TOMAHAWK       CLOUDY    37  30  76 NE3       29.96R
MEDFORD        CLOUDY    37  30  73 NE6       29.93R WCI  33
MERRILL        CLOUDY    38  31  76 N6        29.95R WCI  34
$$

WIZ029-030-035-036-043>047-220000-
CENTRAL WISCONSIN

CITY           SKY/WX    TMP DP  RH WIND       PRES   REMARKS
WAUSAU         CLOUDY    42  29  59 N3        29.91R
MOSINEE        NOT AVBL
MARSHFIELD     MOCLDY    40  30  67 NE8       29.91R WCI  34
STEVENS POINT  FAIR      39  31  71 NE6       29.93R WCI  35
WAUPACA        FAIR      42  32  68 CALM      29.94R
WAUTOMA        CLOUDY    38  32  79 E7        29.93S WCI  33
WISC RAPIDS    FAIR      40  30  67 NE3       29.93R
CAMP DOUGLAS   MOCLDY    41  33  73 NE3       29.91R
$$

WIZ011>013-019>022-031-037>040-048>050-220000-
NORTHEAST WISCONSIN

CITY           SKY/WX    TMP DP  RH WIND       PRES   REMARKS
ANTIGO         CLOUDY    35  31  86 NE7       29.95R WCI  29
SHAWANO        FAIR      39  32  75 E5        29.96R
OCONTO         CLOUDY    35  31  83 CALM      29.98R
STURGEON BAY   LGT RAIN  33  32  96 E6        29.99R VSB<1/4 WCI  28
GREEN BAY      FAIR      36  30  79 NE10      29.96R HAZE    WCI  28
MANITOWOC      LGT RAIN  34  33  96 CALM      29.97S VSB 1/4
APPLETON       PTCLDY    36  28  75 VRB5      29.93R FOG     WCI  32
CLINTONVILLE   FAIR      37  32  81 NE7       29.95R WCI  32
OSHKOSH        FOG       33  33 100 CALM      29.93S VSB 1/4
$$

WIZ032>034-041-042-053>061-220000-
SOUTHWEST WISCONSIN

CITY           SKY/WX    TMP DP  RH WIND       PRES   REMARKS
LA CROSSE      CLOUDY    37  31  78 N3        29.91S HAZE
SPARTA         CLOUDY    40  33  76 CALM      29.92R
VIROQUA        CLOUDY    38  36  92 NE7       29.88S WCI  32
BOSCOBEL       LGT RAIN  37  34  89 NE5       29.90R FOG     WCI  33
PRAIRIE DU CHI CLOUDY    33  32  96 CALM      29.88S FOG
PLATTEVILLE    MOCLDY    38  38 100 E9        29.86R WCI  31
$$

WIZ056-057-062-063-064-067-068-220000-
SOUTH CENTRAL WISCONSIN

CITY           SKY/WX    TMP DP  RH WIND       PRES   REMARKS
REEDSBURG      CLOUDY    37  34  87 E3        29.90R
BARABOO/DELLS  CLOUDY    36  33  88 NE5       29.90S WCI  32
LONE ROCK      CLOUDY    37  36  96 CALM      29.91R FOG
MINERAL POINT  CLOUDY    39  39 100 E9        29.86S FOG     WCI  33
MADISON        DRZL/FOG  37  36  96 E6        29.91S VSB 1   WCI  32
MIDDLETON      CLOUDY    38  38  98 E3        29.90S
WATERTOWN      CLOUDY    37  37 100 E5        29.91S FOG     WCI  33
MONROE         FOG       36  36 100 NE7       29.87R VSB<1/4 WCI  30
JANESVILLE     CLOUDY    39  39 100 NE6       29.89R FOG     WCI  35
$$

WIZ051-052-058>065-066-070>072-220000-
SOUTHEAST WISCONSIN

CITY           SKY/WX    TMP DP  RH WIND       PRES   REMARKS
MILWAUKEE      FOG       37  36  96 NE5       29.93S VSB 1/2 WCI  33
WAUKESHA       FOG       36  34  93 E5        29.93R VSB 3/4 WCI  32
MILWAUKEE/TIMM DRZL/FOG  36  34  93 NE5       29.94S VSB 1   WCI  32
RACINE         FOG       37  37 100 E7        29.94R VSB 1/4 WCI  32
BURLINGTON     CLOUDY    37  36  94 E5        29.91S FOG     WCI  34
KENOSHA        FOG       36  35  96 E6        29.91S VSB 1/8 WCI  31
FOND DU LAC    FOG       34  32  92 NE6       29.93S VSB 3/4 WCI  29
SHEBOYGAN      FOG       34  34 100 NE3       29.95R VSB 3/4
WEST BEND      DRZL/FOG  36  36 100 E5        29.94R VSB 3/4 WCI  32
JUNEAU         CLOUDY    37  36  96 E3        29.92S FOG
$$

LSZ147-162-220000-
LAKE SUPERIOR

STATION/POSITION TIME  TEMP    WIND        PRES    WAVE
                       AIR SEA DIR/SP/G            HT/PER
                 (UTC) (F)     (DEG/KT/KT) (MB)    (FT/S)
DEVILS ISLAND    2200   30      60/ 12/ 13 1018.3R
SAXON HARBOR     2240   30      60/  5/  7 1016.9R
$$

LMZ867-665-643>646-220000-
LAKE MICHIGAN

STATION/POSITION TIME  TEMP    WIND        PRES    WAVE
                       AIR SEA DIR/SP/G            HT/PER
                 (UTC) (F)     (DEG/KT/KT) (MB)    (FT/S)
NORTHPORT PIER   2240   33      20/  3/  3 1015.6R
KEWAUNEE LAKESHO 2230   34      40/  3/  4 1014.5R
SHEBOYGAN LAKESH 2200   34      10/  7/  7 1014.6R
PORT WASHINGTON  2240   34      30/  4/  6 1015.2R
MILWAUKEE LAKESH 2230   35      20/  6/  7   N/A
KENOSHA   LAKESH 2200   35        CALM     1013.5
$$

TC  - TEMPERATURE IN CELSIUS
VSB - VISIBILITY IN STATUTE MILES
WCI - WIND CHILL INDEX
HX  - HEAT INDEX





USA.gov is the U.S. government's official web portal to all federal, state and local government web resources and services.